• In Kazakhstan
  • List of Countries
  • For 7 days
  • Water Temperature
  • Satellite Maps
  • Weather Map
  • News
  • Weather Widgets
  • user-avatar
    Login

    Hourly Weather Innsbruck

    Today, 22 October, Sunday

    Time Temperature Precipitation Wind Pressure Humidity
    00:00 +3°C° 0.1 mm 1 mps 595 mmHg 79%
    01:00 +3°C° 0 mm 1 mps 596 mmHg 83%
    02:00 +3°C° 1.1 mm 1 mps 595 mmHg 86%
    03:00 +2°C° 1.1 mm 1 mps 595 mmHg 88%
    04:00 +2°C° 1.1 mm 1 mps 595 mmHg 91%
    05:00 +1°C° 1.3 mm 2 mps 595 mmHg 92%
    06:00 +1°C° 1.3 mm 2 mps 595 mmHg 93%
    07:00 +1°C° 0 mm 1 mps 594 mmHg 93%
    08:00 -1°C° 0.8 mm 2 mps 594 mmHg 92%
    09:00 +1°C° 0.8 mm 2 mps 594 mmHg 90%
    10:00 +1°C° 0.8 mm 2 mps 594 mmHg 89%
    11:00 -1°C° 1.1 mm 2 mps 594 mmHg 88%
    12:00 -1°C° 1.1 mm 2 mps 594 mmHg 88%
    13:00 -1°C° 1.1 mm 3 mps 593 mmHg 87%
    14:00 -2°C° 1.1 mm 3 mps 593 mmHg 89%
    15:00 -2°C° 1.1 mm 3 mps 592 mmHg 90%
    16:00 -4°C° 1.1 mm 3 mps 592 mmHg 91%
    17:00 -4°C° 0.7 mm 3 mps 592 mmHg 92%
    18:00 -5°C° 0.7 mm 3 mps 592 mmHg 93%
    19:00 -5°C° 0.7 mm 3 mps 592 mmHg 93%
    20:00 -5°C° 0.6 mm 3 mps 592 mmHg 93%
    21:00 -6°C° 0.6 mm 3 mps 592 mmHg 93%
    22:00 -6°C° 0.6 mm 3 mps 592 mmHg 93%
    23:00 -6°C° 0.9 mm 3 mps 592 mmHg 93%

    Tomorrow, 23 October, Monday

    Time Temperature Precipitation Wind Pressure Humidity
    00:00 -6°C° 0.9 mm 3 mps 592 mmHg 93%
    01:00 -5°C° 0.9 mm 2 mps 592 mmHg 93%
    02:00 -5°C° 0.5 mm 2 mps 592 mmHg 94%
    03:00 -5°C° 0.5 mm 2 mps 592 mmHg 94%
    04:00 -5°C° 0.5 mm 2 mps 592 mmHg 94%
    05:00 -5°C° 0.4 mm 2 mps 592 mmHg 94%
    06:00 -5°C° 0.4 mm 2 mps 593 mmHg 94%
    07:00 -5°C° 0.4 mm 2 mps 593 mmHg 94%
    08:00 -5°C° 0.9 mm 2 mps 593 mmHg 93%
    09:00 -4°C° 0.9 mm 2 mps 593 mmHg 92%
    10:00 -5°C° 0.9 mm 3 mps 594 mmHg 90%
    11:00 -4°C° 0.8 mm 3 mps 594 mmHg 90%
    12:00 -4°C° 0.8 mm 3 mps 594 mmHg 89%
    13:00 -4°C° 0.8 mm 3 mps 594 mmHg 89%
    14:00 -4°C° 0.7 mm 3 mps 594 mmHg 90%
    15:00 -3°C° 0.7 mm 2 mps 594 mmHg 90%
    16:00 -3°C° 0.7 mm 2 mps 594 mmHg 91%
    17:00 -3°C° 1 mm 2 mps 595 mmHg 92%
    18:00 -4°C° 1 mm 2 mps 595 mmHg 93%
    19:00 -4°C° 1 mm 2 mps 595 mmHg 94%
    20:00 -4°C° 1.4 mm 2 mps 595 mmHg 94%
    21:00 -4°C° 1.4 mm 2 mps 596 mmHg 94%
    22:00 -4°C° 1.4 mm 2 mps 596 mmHg 94%
    23:00 -4°C° 0.9 mm 2 mps 596 mmHg 94%

    Day after tomorrow, 24 October, Tuesday

    Time Temperature Precipitation Wind Pressure Humidity
    00:00 -4°C° 0.9 mm 2 mps 597 mmHg 95%
    01:00 -4°C° 0.9 mm 2 mps 597 mmHg 95%
    02:00 -4°C° 0.3 mm 2 mps 597 mmHg 95%
    03:00 -4°C° 0.3 mm 2 mps 597 mmHg 95%
    04:00 -4°C° 0.3 mm 2 mps 597 mmHg 95%
    05:00 -5°C° 0.1 mm 2 mps 597 mmHg 95%
    06:00 -5°C° 0.1 mm 2 mps 597 mmHg 95%
    07:00 -5°C° 0.1 mm 2 mps 597 mmHg 94%
    08:00 -4°C° 0 mm 2 mps 598 mmHg 93%
    09:00 -2°C° 0 mm 2 mps 598 mmHg 91%
    10:00 -1°C° 0 mm 2 mps 599 mmHg 89%
    11:00 +1°C° 0 mm 2 mps 599 mmHg 89%
    12:00 +1°C° 0 mm 2 mps 599 mmHg 89%
    13:00 +2°C° 0 mm 2 mps 599 mmHg 89%
    14:00 +2°C° 0 mm 2 mps 599 mmHg 90%
    15:00 +2°C° 0 mm 2 mps 599 mmHg 91%
    16:00 +1°C° 0 mm 2 mps 599 mmHg 92%
    17:00 -1°C° 0 mm 2 mps 599 mmHg 93%
    18:00 -2°C° 0 mm 2 mps 599 mmHg 94%
    19:00 -3°C° 0 mm 2 mps 599 mmHg 94%
    20:00 -3°C° 0 mm 2 mps 599 mmHg 92%
    21:00 -3°C° 0 mm 2 mps 599 mmHg 89%
    22:00 -3°C° 0 mm 2 mps 599 mmHg 87%
    23:00 -3°C° 0 mm 2 mps 599 mmHg 85%

    25 October, Wednesday

    Time Temperature Precipitation Wind Pressure Humidity
    00:00 -3°C° 0 mm 2 mps 599 mmHg 84%
    01:00 -3°C° 0 mm 2 mps 599 mmHg 83%
    02:00 -2°C° 0 mm 2 mps 599 mmHg 83%
    03:00 0°C° 0 mm 1 mps 599 mmHg 82%
    04:00 0°C° 0 mm 1 mps 599 mmHg 82%
    05:00 0°C° 0 mm 1 mps 599 mmHg 81%
    06:00 0°C° 0 mm 1 mps 599 mmHg 81%
    07:00 0°C° 0 mm 1 mps 599 mmHg 81%
    08:00 +2°C° 0 mm 1 mps 600 mmHg 83%
    09:00 +4°C° 0 mm 1 mps 601 mmHg 85%
    10:00 +6°C° 0 mm 1 mps 602 mmHg 87%
    11:00 +6°C° 0 mm 1 mps 602 mmHg 86%
    12:00 +7°C° 0 mm 1 mps 602 mmHg 84%
    13:00 +8°C° 0 mm 1 mps 602 mmHg 83%
    14:00 +6°C° 0 mm 0 mps 602 mmHg 85%
    15:00 +6°C° 0 mm 0 mps 602 mmHg 87%
    16:00 +5°C° 0 mm 0 mps 601 mmHg 89%
    17:00 +5°C° 0 mm 1 mps 601 mmHg 88%
    18:00 +4°C° 0 mm 1 mps 601 mmHg 87%
    19:00 +2°C° 0 mm 1 mps 600 mmHg 86%
    20:00 +2°C° 0 mm 1 mps 600 mmHg 83%
    21:00 +2°C° 0 mm 1 mps 600 mmHg 80%
    22:00 +2°C° 0 mm 1 mps 601 mmHg 77%
    23:00 +2°C° 0 mm 1 mps 601 mmHg 76%

    26 October, Thursday

    Time Temperature Precipitation Wind Pressure Humidity
    00:00 +2°C° 0 mm 1 mps 600 mmHg 74%
    01:00 +1°C° 0 mm 1 mps 600 mmHg 72%
    02:00 +1°C° 0 mm 1 mps 600 mmHg 71%
    03:00 +1°C° 0 mm 1 mps 600 mmHg 70%
    04:00 +1°C° 0 mm 1 mps 600 mmHg 70%
    05:00 +1°C° 0 mm 1 mps 600 mmHg 70%
    06:00 +1°C° 0 mm 1 mps 600 mmHg 70%
    07:00 +1°C° 0 mm 1 mps 600 mmHg 70%
    08:00 +3°C° 0 mm 1 mps 601 mmHg 73%
    09:00 +5°C° 0 mm 1 mps 602 mmHg 76%
    10:00 +8°C° 0 mm 1 mps 603 mmHg 79%
    11:00 +9°C° 0 mm 1 mps 603 mmHg 77%
    12:00 +10°C° 0 mm 1 mps 604 mmHg 75%
    13:00 +11°C° 0 mm 1 mps 604 mmHg 73%
    14:00 +10°C° 0 mm 1 mps 603 mmHg 75%
    15:00 +9°C° 0 mm 1 mps 603 mmHg 77%
    16:00 +8°C° 0 mm 1 mps 602 mmHg 79%
    17:00 +6°C° 0 mm 1 mps 602 mmHg 79%
    18:00 +5°C° 0 mm 1 mps 601 mmHg 79%
    19:00 +3°C° 0 mm 1 mps 601 mmHg 79%
    20:00 +3°C° 0 mm 1 mps 601 mmHg 77%
    21:00 +3°C° 0 mm 1 mps 600 mmHg 74%
    22:00 +2°C° 0 mm 2 mps 600 mmHg 72%
    23:00 +1°C° 0 mm 2 mps 600 mmHg 71%

    27 October, Friday

    Time Temperature Precipitation Wind Pressure Humidity
    00:00 +1°C° 0 mm 2 mps 600 mmHg 70%
    01:00 +1°C° 0 mm 2 mps 600 mmHg 68%
    02:00 +1°C° 0 mm 2 mps 599 mmHg 68%
    03:00 +1°C° 0 mm 2 mps 599 mmHg 68%
    04:00 +1°C° 0 mm 2 mps 599 mmHg 67%
    05:00 +1°C° 0 mm 2 mps 599 mmHg 68%
    06:00 +1°C° 0 mm 2 mps 598 mmHg 69%
    07:00 +1°C° 0 mm 2 mps 598 mmHg 70%
    08:00 +3°C° 0 mm 2 mps 599 mmHg 71%
    09:00 +6°C° 0 mm 1 mps 599 mmHg 73%
    10:00 +8°C° 0 mm 1 mps 600 mmHg 75%
    11:00 +9°C° 0 mm 1 mps 600 mmHg 73%
    12:00 +9°C° 0 mm 2 mps 600 mmHg 72%
    13:00 +9°C° 0 mm 2 mps 599 mmHg 70%
    14:00 +8°C° 0 mm 2 mps 598 mmHg 73%
    15:00 +7°C° 0 mm 2 mps 597 mmHg 76%
    16:00 +6°C° 0 mm 2 mps 597 mmHg 79%
    17:00 +5°C° 0.2 mm 2 mps 596 mmHg 83%
    18:00 +4°C° 0.2 mm 2 mps 595 mmHg 86%
    19:00 +3°C° 0.2 mm 2 mps 595 mmHg 89%
    20:00 +2°C° 2.2 mm 2 mps 595 mmHg 91%
    21:00 +2°C° 2.2 mm 2 mps 595 mmHg 92%
    22:00 +2°C° 2.2 mm 2 mps 596 mmHg 94%
    23:00 +1°C° 1.4 mm 3 mps 596 mmHg 94%
    Show more